Hourly Data Report for February 16, 2019

TORONTO CITY
ONTARIO
Current Station Operator: ECCC - MSC

43°40'00.000" N
79°24'00.000" W
112.50 m
6158355
71508
XTO

Download Data

Hourly Data (February 2019)
Hourly Data Report for February 16, 2019
TIME
LST
Temp Definition
°C
Dew Point Definition
°C
Rel Hum Definition
%
Precip. Amount Definition
mm

Wind Dir Definition
10's deg

Wind Spd Definition
km/h
Visibility Definition
km
Stn Press Definition
kPa
Hmdx Definition


Wind Chill Definition


Weather Definition


00:00 -2.7 -7.4 70 0.0 LegendMM LegendMM   99.50     LegendNANA
01:00 -2.6 -6.4 75 0.0 LegendMM LegendMM   99.57     LegendNANA
02:00 -2.3 -5.6 78 0.0 LegendMM LegendMM   99.66     LegendNANA
03:00 -2.5 -7.2 70 0.2 LegendMM LegendMM   99.75     LegendNANA
04:00 -3.3 -10.4 58 0.0 LegendMM LegendMM   99.83     LegendNANA
05:00 -4.3 -10.5 62 0.0 LegendMM LegendMM   99.92     LegendNANA
06:00 -5.0 -10.4 66 0.0 LegendMM LegendMM   100.01     LegendNANA
07:00 -5.3 -9.7 71 0.0 LegendMM LegendMM   100.11     LegendNANA
08:00 -5.9 -10.3 71 0.0 LegendMM LegendMM   100.21     LegendNANA
09:00 -5.6 -10.1 71 0.0 LegendMM LegendMM   100.29     LegendNANA
10:00 -5.2 -10.0 69 0.0 LegendMM LegendMM   100.29     LegendNANA
11:00 -4.5 -9.7 67 0.0 LegendMM LegendMM   100.36     LegendNANA
12:00 -3.8 -11.1 57 0.0 LegendMM LegendMM   100.39     LegendNANA
13:00 -3.9 -12.3 52 0.0 LegendMM LegendMM   100.35     LegendNANA
14:00 -3.1 -12.0 50 0.0 LegendMM LegendMM   100.33     LegendNANA
15:00 -2.9 -11.5 52 0.0 LegendMM LegendMM   100.36     LegendNANA
16:00 -2.8 -11.4 52 0.0 LegendMM LegendMM   100.45     LegendNANA
17:00 -3.1 -11.7 51 0.0 LegendMM LegendMM   100.48     LegendNANA
18:00 -3.5 -11.1 55 0.0 LegendMM LegendMM   100.53     LegendNANA
19:00 -5.0 -10.9 63 0.0 LegendMM LegendMM   100.60     LegendNANA
20:00 -5.1 -10.5 66 0.0 LegendMM LegendMM   100.61     LegendNANA
21:00 -5.4 -10.6 67 0.0 LegendMM LegendMM   100.61     LegendNANA
22:00 -5.4 -10.3 68 0.0 LegendMM LegendMM   100.64     LegendNANA
23:00 -6.2 -10.5 71 0.0 LegendMM LegendMM   100.71     LegendNANA

Notes on Data Quality.

Legend

  • E = Estimated
  • M = Missing
  • NA = Not Available*
  • [empty] = Indicates an unobserved value
Date modified: